Location: Finney State Fishing Lake and Wildlife Area
(38.1834°N, 100.3310°W)
Time: 09:51:07
(UTC+00:00)

ATLAS 5 CENTAUR R/B - Pass Details

Date: 17 October 2021
Orbit: 497 x 1159 km, 63.4° (Epoch: 25 November)

Event Time Altitude Azimuth Distance (km) Brightness Sun altitude
Exits shadow 12:05:24 11° 259° (W) 2,699 4.2 -10.0°
Maximum altitude 12:06:11 11° 252° (WSW) 2,705 4.3 -9.8°
Drops below altitude 10° 12:08:00 10° 236° (SW) 2,845 4.5 -9.5°
Sets 12:13:12 0° 205° (SSW) 3,919 5.5 -8.4°
